Time,TemperatureF,DewpointF,PressureIn,WindDirection,WindDirectionDegrees,WindSpeedMPH,WindSpeedGustMPH,Humidity,HourlyPrecipIn,Conditions,Clouds,dailyrainin,SolarRadiationWatts/m^2,SoftwareType,DateUTC
2013-10-26 00:02:00,37.0,35.0,-100.00,NNE,24,3.0,4.0,94,0.00,,,0.17,0.000000,,2013-10-26 06:02:00,
2013-10-26 00:42:00,37.0,36.0,-100.00,NNW,336,6.0,6.0,95,0.00,,,0.17,0.000000,,2013-10-26 06:42:00,
2013-10-26 00:52:00,37.0,36.0,-100.00,NNW,336,6.0,6.0,95,0.00,,,0.17,0.000000,,2013-10-26 06:52:00,
2013-10-26 01:02:00,37.0,36.0,-100.00,NNW,336,6.0,6.0,95,0.00,,,0.17,0.000000,,2013-10-26 07:02:00,
2013-10-26 01:11:00,37.0,36.0,-100.00,NNW,336,6.0,6.0,95,0.00,,,0.17,0.000000,,2013-10-26 07:11:00,
2013-10-26 01:42:00,36.0,35.0,-100.00,NNW,338,6.0,7.0,96,0.00,,,0.17,0.000000,,2013-10-26 07:42:00,
2013-10-26 01:52:00,36.0,35.0,-100.00,NNW,338,6.0,7.0,96,0.00,,,0.17,0.000000,,2013-10-26 07:52:00,
2013-10-26 02:02:00,36.0,35.0,-100.00,NNW,338,6.0,7.0,96,0.00,,,0.17,0.000000,,2013-10-26 08:02:00,
2013-10-26 02:11:00,36.0,35.0,-100.00,NNW,338,6.0,7.0,96,0.00,,,0.17,0.000000,,2013-10-26 08:11:00,
2013-10-26 02:42:00,36.0,34.0,-100.00,NNW,328,9.0,10.0,94,0.00,,,0.17,0.000000,,2013-10-26 08:42:00,
2013-10-26 02:52:00,36.0,34.0,-100.00,NNW,328,9.0,10.0,94,0.00,,,0.17,0.000000,,2013-10-26 08:52:00,
2013-10-26 03:02:00,36.0,34.0,-100.00,NNW,328,9.0,10.0,94,0.00,,,0.17,0.000000,,2013-10-26 09:02:00,
2013-10-26 03:11:00,36.0,34.0,-100.00,NNW,328,9.0,10.0,94,0.00,,,0.17,0.000000,,2013-10-26 09:11:00,
2013-10-26 03:12:00,36.0,34.0,-100.00,NNW,328,8.0,14.0,94,0.00,,,0.17,0.000000,,2013-10-26 09:12:00,
2013-10-26 03:43:00,36.0,34.0,-100.00,NNW,328,8.0,14.0,94,0.00,,,0.17,0.000000,,2013-10-26 09:43:00,
2013-10-26 03:53:00,36.0,34.0,-100.00,NNW,328,8.0,14.0,94,0.00,,,0.17,0.000000,,2013-10-26 09:53:00,
2013-10-26 04:03:00,36.0,34.0,-100.00,NNW,328,8.0,14.0,94,0.00,,,0.17,0.000000,,2013-10-26 10:03:00,
2013-10-26 04:42:00,37.0,34.0,-100.00,NNW,344,6.0,13.0,90,0.00,,,0.17,0.000000,,2013-10-26 10:42:00,
2013-10-26 04:53:00,37.0,34.0,-100.00,NNW,344,6.0,13.0,90,0.00,,,0.17,0.000000,,2013-10-26 10:53:00,
2013-10-26 05:03:00,37.0,34.0,-100.00,NNW,344,6.0,13.0,90,0.00,,,0.17,0.000000,,2013-10-26 11:03:00,
2013-10-26 05:11:00,37.0,34.0,-100.00,NNW,344,6.0,13.0,90,0.00,,,0.17,0.000000,,2013-10-26 11:11:00,
2013-10-26 05:42:00,38.0,33.0,-100.00,NNW,329,8.0,12.0,82,0.00,,,0.17,0.000000,,2013-10-26 11:42:00,
2013-10-26 05:52:00,38.0,33.0,-100.00,NNW,329,8.0,12.0,82,0.00,,,0.17,0.000000,,2013-10-26 11:52:00,
2013-10-26 06:01:00,38.0,33.0,-100.00,NNW,329,8.0,12.0,82,0.00,,,0.17,0.000000,,2013-10-26 12:01:00,
2013-10-26 06:11:00,38.0,33.0,-100.00,NNW,329,8.0,12.0,82,0.00,,,0.17,0.000000,,2013-10-26 12:11:00,
2013-10-26 06:42:00,38.0,32.0,-100.00,NNW,338,7.0,11.0,79,0.00,,,0.15,0.000000,,2013-10-26 12:42:00,
2013-10-26 06:52:00,38.0,32.0,-100.00,NNW,338,7.0,11.0,79,0.00,,,0.15,0.000000,,2013-10-26 12:52:00,
2013-10-26 07:01:00,38.0,32.0,-100.00,NNW,338,7.0,11.0,79,0.00,,,0.15,0.000000,,2013-10-26 13:01:00,
2013-10-26 07:11:00,38.0,32.0,-100.00,NNW,338,7.0,11.0,79,0.00,,,0.15,0.000000,,2013-10-26 13:11:00,
2013-10-26 07:42:00,39.0,31.0,-100.00,NNW,334,9.0,12.0,74,0.00,,,-99.99,0.000000,,2013-10-26 13:42:00,
2013-10-26 08:11:00,39.0,31.0,-100.00,NNW,334,9.0,12.0,74,0.00,,,-99.99,0.000000,,2013-10-26 14:11:00,
2013-10-26 08:12:00,41.0,31.0,-100.00,North,355,6.0,14.0,68,0.00,,,-99.99,25.000000,,2013-10-26 14:12:00,
2013-10-26 09:12:00,44.0,31.0,-100.00,North,357,4.0,7.0,59,0.00,,,0.07,176.000000,,2013-10-26 15:12:00,
2013-10-26 09:44:00,44.0,31.0,-100.00,North,357,4.0,7.0,59,0.00,,,0.07,176.000000,,2013-10-26 15:44:00,
2013-10-26 10:12:00,47.0,32.0,-100.00,North,10,5.0,10.0,55,0.00,,,0.07,365.000000,,2013-10-26 16:12:00,
2013-10-26 10:44:00,47.0,32.0,-100.00,North,10,5.0,10.0,55,0.00,,,0.07,365.000000,,2013-10-26 16:44:00,
2013-10-26 10:53:00,47.0,32.0,-100.00,North,10,5.0,10.0,55,0.00,,,0.07,365.000000,,2013-10-26 16:53:00,
2013-10-26 11:03:00,47.0,32.0,-100.00,North,10,5.0,10.0,55,0.00,,,0.07,365.000000,,2013-10-26 17:03:00,
2013-10-26 11:12:00,52.0,33.0,-100.00,WNW,292,3.0,8.0,49,0.00,,,0.07,496.000000,,2013-10-26 17:12:00,
2013-10-26 11:43:00,52.0,33.0,-100.00,WNW,292,3.0,8.0,49,0.00,,,0.07,496.000000,,2013-10-26 17:43:00,
2013-10-26 11:52:00,52.0,33.0,-100.00,WNW,292,3.0,8.0,49,0.00,,,0.07,496.000000,,2013-10-26 17:52:00,
2013-10-26 12:02:00,52.0,33.0,-100.00,WNW,292,3.0,8.0,49,0.00,,,0.07,496.000000,,2013-10-26 18:02:00,
2013-10-26 12:12:00,56.0,39.0,-100.00,SW,219,4.0,8.0,53,0.00,,,0.07,598.000000,,2013-10-26 18:12:00,
2013-10-26 12:42:00,56.0,39.0,-100.00,SW,219,4.0,8.0,53,0.00,,,0.07,598.000000,,2013-10-26 18:42:00,
2013-10-26 12:52:00,56.0,39.0,-100.00,SW,219,4.0,8.0,53,0.00,,,0.07,598.000000,,2013-10-26 18:52:00,
2013-10-26 13:01:00,56.0,39.0,-100.00,SW,219,4.0,8.0,53,0.00,,,0.07,598.000000,,2013-10-26 19:01:00,
2013-10-26 13:12:00,60.0,38.0,-100.00,SSW,204,4.0,9.0,44,0.00,,,0.07,706.000000,,2013-10-26 19:12:00,
2013-10-26 13:42:00,60.0,38.0,-100.00,SSW,204,4.0,9.0,44,0.00,,,0.07,706.000000,,2013-10-26 19:42:00,
2013-10-26 13:52:00,60.0,38.0,-100.00,SSW,204,4.0,9.0,44,0.00,,,0.07,706.000000,,2013-10-26 19:52:00,
2013-10-26 14:02:00,60.0,38.0,-100.00,SSW,204,4.0,9.0,44,0.00,,,0.07,706.000000,,2013-10-26 20:02:00,
2013-10-26 14:43:00,55.0,32.0,-100.00,SSE,158,6.0,11.0,42,0.00,,,0.03,480.000000,,2013-10-26 20:43:00,
2013-10-26 14:52:00,55.0,32.0,-100.00,SSE,158,6.0,11.0,42,0.00,,,0.03,480.000000,,2013-10-26 20:52:00,
2013-10-26 15:02:00,55.0,32.0,-100.00,SSE,158,6.0,11.0,42,0.00,,,0.03,480.000000,,2013-10-26 21:02:00,
2013-10-26 15:11:00,55.0,32.0,-100.00,SSE,158,6.0,11.0,42,0.00,,,0.03,480.000000,,2013-10-26 21:11:00,
2013-10-26 15:12:00,59.0,31.0,-100.00,SSW,199,4.0,12.0,34,0.00,,,-99.99,571.000000,,2013-10-26 21:12:00,
2013-10-26 15:43:00,59.0,31.0,-100.00,SSW,199,4.0,12.0,34,0.00,,,-99.99,571.000000,,2013-10-26 21:43:00,
2013-10-26 15:54:00,59.0,31.0,-100.00,SSW,199,4.0,12.0,34,0.00,,,-99.99,571.000000,,2013-10-26 21:54:00,
2013-10-26 16:03:00,59.0,31.0,-100.00,SSW,199,4.0,12.0,34,0.00,,,-99.99,571.000000,,2013-10-26 22:03:00,
2013-10-26 16:12:00,57.0,27.0,-100.00,WNW,283,3.0,6.0,32,0.00,,,0.03,392.000000,,2013-10-26 22:12:00,
2013-10-26 16:44:00,57.0,27.0,-100.00,WNW,283,3.0,6.0,32,0.00,,,0.03,392.000000,,2013-10-26 22:44:00,
2013-10-26 16:54:00,57.0,27.0,-100.00,WNW,283,3.0,6.0,32,0.00,,,0.03,392.000000,,2013-10-26 22:54:00,
2013-10-26 17:03:00,57.0,27.0,-100.00,WNW,283,3.0,6.0,32,0.00,,,0.03,392.000000,,2013-10-26 23:03:00,
2013-10-26 17:42:00,53.0,27.0,-100.00,West,277,5.0,10.0,37,0.00,,,0.02,110.000000,,2013-10-26 23:42:00,
2013-10-26 17:52:00,53.0,27.0,-100.00,West,277,5.0,10.0,37,0.00,,,0.02,110.000000,,2013-10-26 23:52:00,
2013-10-26 18:01:00,53.0,27.0,-100.00,West,277,5.0,10.0,37,0.00,,,0.02,110.000000,,2013-10-27 00:01:00,
2013-10-26 18:11:00,53.0,27.0,-100.00,West,277,5.0,10.0,37,0.00,,,0.02,110.000000,,2013-10-27 00:11:00,
2013-10-26 18:42:00,48.0,31.0,-100.00,WNW,301,8.0,13.0,51,0.00,,,0.00,54.000000,,2013-10-27 00:42:00,
2013-10-26 18:52:00,48.0,31.0,-100.00,WNW,301,8.0,13.0,51,0.00,,,0.00,54.000000,,2013-10-27 00:52:00,
2013-10-26 19:01:00,48.0,31.0,-100.00,WNW,301,8.0,13.0,51,0.00,,,0.00,54.000000,,2013-10-27 01:01:00,
2013-10-26 19:11:00,48.0,31.0,-100.00,WNW,301,8.0,13.0,51,0.00,,,0.00,54.000000,,2013-10-27 01:11:00,
2013-10-26 19:12:00,46.0,32.0,-100.00,ESE,106,3.0,10.0,57,0.00,,,0.00,1.000000,,2013-10-27 01:12:00,
2013-10-26 19:42:00,46.0,32.0,-100.00,ESE,106,3.0,10.0,57,0.00,,,0.00,1.000000,,2013-10-27 01:42:00,
2013-10-26 19:52:00,46.0,32.0,-100.00,ESE,106,3.0,10.0,57,0.00,,,0.00,1.000000,,2013-10-27 01:52:00,
2013-10-26 20:02:00,46.0,32.0,-100.00,ESE,106,3.0,10.0,57,0.00,,,0.00,1.000000,,2013-10-27 02:02:00,
2013-10-26 20:42:00,43.0,33.0,-100.00,ESE,122,9.0,14.0,68,0.00,,,0.00,0.000000,,2013-10-27 02:42:00,
2013-10-26 20:52:00,43.0,33.0,-100.00,ESE,122,9.0,14.0,68,0.00,,,0.00,0.000000,,2013-10-27 02:52:00,
2013-10-26 21:02:00,43.0,33.0,-100.00,ESE,122,9.0,14.0,68,0.00,,,0.00,0.000000,,2013-10-27 03:02:00,
2013-10-26 21:11:00,43.0,33.0,-100.00,ESE,122,9.0,14.0,68,0.00,,,0.00,0.000000,,2013-10-27 03:11:00,
2013-10-26 21:12:00,43.0,33.0,-100.00,ESE,116,7.0,15.0,68,0.00,,,0.00,0.000000,,2013-10-27 03:12:00,
2013-10-26 21:45:00,43.0,33.0,-100.00,ESE,116,7.0,15.0,68,0.00,,,0.00,0.000000,,2013-10-27 03:45:00,
2013-10-26 21:55:00,43.0,33.0,-100.00,ESE,116,7.0,15.0,68,0.00,,,0.00,0.000000,,2013-10-27 03:55:00,
2013-10-26 22:02:00,-999.0,-99.9,-100.00,ESE,116,7.0,15.0,-999,-99.99,,,-99.99,0.000000,,2013-10-27 04:02:00,
2013-10-26 22:12:00,42.0,32.0,-100.00,NNW,337,4.0,9.0,68,0.00,,,0.00,0.000000,,2013-10-27 04:12:00,
2013-10-26 22:44:00,42.0,32.0,-100.00,NNW,337,4.0,9.0,68,0.00,,,0.00,0.000000,,2013-10-27 04:44:00,
2013-10-26 22:54:00,42.0,32.0,-100.00,NNW,337,4.0,9.0,68,0.00,,,0.00,0.000000,,2013-10-27 04:54:00,
2013-10-26 23:04:00,42.0,32.0,-100.00,NNW,337,4.0,9.0,68,0.00,,,0.00,0.000000,,2013-10-27 05:04:00,
2013-10-26 23:12:00,42.0,31.0,-100.00,NNE,20,2.0,5.0,64,0.00,,,0.00,0.000000,,2013-10-27 05:12:00,
2013-10-26 23:43:00,42.0,31.0,-100.00,NNE,20,2.0,5.0,64,0.00,,,0.00,0.000000,,2013-10-27 05:43:00,
2013-10-26 23:52:00,42.0,31.0,-100.00,NNE,20,2.0,5.0,64,0.00,,,0.00,0.000000,,2013-10-27 05:52:00,